WetterOnline ( https://www.wetteronline.de )

Wetter aktuell Partenstein

Aktuelles Wetter: Neuhütten/Spessart (340m)

6-stündlich | Neueste Meldungen
Ortszeit Temperatur Wetter
Mo, 15.07. 2:00 12.3° C fast wolkenlos
So, 14.07. 20:00 20.9° C bedeckt
So, 14.07. 14:00 22.5° C fast wolkenlos
So, 14.07. 8:00 13.7° C fast wolkenlos
So, 14.07. 2:00 11.2° C wolkig
Sa, 13.07. 20:00 19.6° C leicht bewölkt
Sa, 13.07. 14:00 17.1° C bewölkt
Sa, 13.07. 8:00 13.6° C wolkig
Ortszeit Temperatur Wetter
Mo, 15.07. 4:00 11.6° C wolkenlos
Mo, 15.07. 3:50 11.6° C wolkenlos
Mo, 15.07. 3:40 11.6° C wolkenlos
Mo, 15.07. 3:30 11.6° C leicht bewölkt
Mo, 15.07. 3:20 11.6° C leicht bewölkt
Mo, 15.07. 3:10 11.6° C leicht bewölkt
Mo, 15.07. 3:00 12.2° C wolkig
Mo, 15.07. 2:30 12.5° C bewölkt
Mo, 15.07. 2:00 12.3° C fast wolkenlos
Mo, 15.07. 1:30 12.9° C wolkenlos
Mo, 15.07. 1:00 13.3° C wolkig
Ortszeit Relative Feuchte Sichtweite
Mo, 15.07. 2:00 95% 40 km
So, 14.07. 20:00 69% 40 km
So, 14.07. 14:00 47% 55 km
So, 14.07. 8:00 86% 50 km
So, 14.07. 2:00 96% 35 km
Sa, 13.07. 20:00 55% >70 km
Sa, 13.07. 14:00 66% 60 km
Sa, 13.07. 8:00 79% 60 km
Ortszeit Relative Feuchte Sichtweite
Mo, 15.07. 4:00 97% 30 km
Mo, 15.07. 3:50 97% -
Mo, 15.07. 3:40 96% -
Mo, 15.07. 3:30 95% 45 km
Mo, 15.07. 3:20 95% -
Mo, 15.07. 3:10 95% -
Mo, 15.07. 3:00 95% 35 km
Mo, 15.07. 2:30 95% 35 km
Mo, 15.07. 2:00 95% 40 km
Mo, 15.07. 1:30 92% 45 km
Mo, 15.07. 1:00 89% 50 km
Ortszeit Niederschlagsmenge Niederschlagsart
Mo, 15.07. 2:00 0.0 l/m2 in 6 Std. -
So, 14.07. 20:00 0.1 l/m2 in 12 Std. -
So, 14.07. 14:00 0.1 l/m2 in 6 Std. Regen
So, 14.07. 8:00 0.0 l/m2 in 12 Std. -
So, 14.07. 2:00 0.0 l/m2 in 6 Std. -
Sa, 13.07. 20:00 0.1 l/m2 in 12 Std. Regen
Sa, 13.07. 14:00 0.1 l/m2 in 6 Std. Regen
Sa, 13.07. 8:00 0.0 l/m2 in 12 Std. -
Ortszeit Niederschlagsmenge Niederschlagsart
Mo, 15.07. 4:00 0.0 l/m2 in 1 Std. -
Mo, 15.07. 3:50 keine Meldung -
Mo, 15.07. 3:40 keine Meldung -
Mo, 15.07. 3:30 0.0 l/m2 in 30 Min -
Mo, 15.07. 3:20 keine Meldung -
Mo, 15.07. 3:10 keine Meldung -
Mo, 15.07. 3:00 0.0 l/m2 in 1 Std. -
Mo, 15.07. 2:30 0.0 l/m2 in 30 Min -
Mo, 15.07. 2:00 0.0 l/m2 in 1 Std. -
Mo, 15.07. 1:30 0.0 l/m2 in 30 Min -
Mo, 15.07. 1:00 0.0 l/m2 in 1 Std. -
Ortszeit Stärke Spitze Richtung
km/h Bft. km/h Grad Sektor
Mo, 15.07. 2:00 2 1 9 300° NW
So, 14.07. 20:00 4 1 25 220° SW
So, 14.07. 14:00 7 2 25 210° SW
So, 14.07. 8:00 4 1 7 70° O
So, 14.07. 2:00 2 1 15 270° W
Sa, 13.07. 20:00 7 2 29 260° W
Sa, 13.07. 14:00 13 3 24 250° W
Sa, 13.07. 8:00 4 1 22 280° W
Ortszeit Stärke Spitze Richtung
km/h Bft. km/h Grad Sektor
Mo, 15.07. 4:00 0 0 4 - -
Mo, 15.07. 3:50 0 0 - 360° N
Mo, 15.07. 3:40 2 1 - 240° SW
Mo, 15.07. 3:30 2 1 4 200° S
Mo, 15.07. 3:20 2 1 - 200° S
Mo, 15.07. 3:10 2 1 - 230° SW
Mo, 15.07. 3:00 0 0 4 - -
Mo, 15.07. 2:30 2 1 4 20° N
Mo, 15.07. 2:00 2 1 7 300° NW
Mo, 15.07. 1:30 4 1 7 240° SW
Mo, 15.07. 1:00 4 1 7 220° SW
Ortszeit Untergrenze Bedeckung Gattung
total tief tief mittel hoch
Mo, 15.07. 2:00 3300 m 1/8 1/8 - - -
So, 14.07. 20:00 4200 m 8/8 8/8 - - -
So, 14.07. 14:00 1500 m 1/8 1/8 - - -
So, 14.07. 8:00 3000 m 1/8 1/8 - - -
So, 14.07. 2:00 3000 m 6/8 6/8 - - -
Sa, 13.07. 20:00 1500 m 3/8 3/8 - - -
Sa, 13.07. 14:00 2100 m 7/8 7/8 - - -
Sa, 13.07. 8:00 480 m 5/8 5/8 - - -
Ortszeit Bedeckungsgrad in Achtel und Wolkenuntergrenze
Mo, 15.07. 4:00 keine Wolken
Mo, 15.07. 3:50 keine Wolken
Mo, 15.07. 3:40 keine Wolken
Mo, 15.07. 3:30 3(3000m)
Mo, 15.07. 3:20 3(3000m)
Mo, 15.07. 3:10 4
Mo, 15.07. 3:00 5(3000m)
Mo, 15.07. 2:30 7(3000m)
Mo, 15.07. 2:00 1(3300m)
Mo, 15.07. 1:30 keine Wolken
Mo, 15.07. 1:00 5(3300m)
Ortszeit Luftdruck NN (hPa) Tendenz (hPa in 3 Std.)
Mo, 15.07. 2:00 1015 + 0,1
So, 14.07. 20:00 1013 0,0
So, 14.07. 14:00 1013 - 0,4
So, 14.07. 8:00 1015 + 0,4
So, 14.07. 2:00 1015 0,0
Sa, 13.07. 20:00 1013 - 0,1
Sa, 13.07. 14:00 1014 - 0,1
Sa, 13.07. 8:00 1014 + 0,5
Ortszeit Luftdruck NN (hPa) Tendenz (hPa in 3 Std.)
Mo, 15.07. 4:00 1015 - 0,3
Mo, 15.07. 3:50 1015 keine Meldung
Mo, 15.07. 3:40 1015 keine Meldung
Mo, 15.07. 3:30 1015 0,0
Mo, 15.07. 3:20 1015 keine Meldung
Mo, 15.07. 3:10 1015 keine Meldung
Mo, 15.07. 3:00 1015 + 0,1
Mo, 15.07. 2:30 1015 + 0,3
Mo, 15.07. 2:00 1015 + 0,1
Mo, 15.07. 1:30 1015 - 0,1
Mo, 15.07. 1:00 1015 + 0,4
Ortszeit Schneehöhe (cm)
Mo, 15.07. 2:00 0
So, 14.07. 20:00 0
So, 14.07. 14:00 0
So, 14.07. 8:00 0
So, 14.07. 2:00 0
Sa, 13.07. 20:00 0
Sa, 13.07. 14:00 -
Sa, 13.07. 8:00 0
Ortszeit Schneehöhe (cm)
Mo, 15.07. 4:00 0
Mo, 15.07. 3:50 0
Mo, 15.07. 3:40 -
Mo, 15.07. 3:30 0
Mo, 15.07. 3:20 0
Mo, 15.07. 3:10 -
Mo, 15.07. 3:00 0
Mo, 15.07. 2:30 0
Mo, 15.07. 2:00 0
Mo, 15.07. 1:30 0
Mo, 15.07. 1:00 0
Link zu dieser Seite / Seite empfehlen

Das Wetter in ...